Windom, MN

10:51 PM CDT on June 23, 2017 (GMT -0500)
Windom Municipal

Weather History for KMWM - March, 2013

Change the Weather History Date:

Thursday, March 7, 2013

  Actual Average Record
Temperature  
Mean Temperature 21 °F -  
Max Temperature 30 °F 38 °F 71 °F (1987)
Min Temperature 12 °F 15 °F -11 °F (1989)
Degree Days  
Heating Degree Days 44    
Moisture  
Dew Point 18 °F    
Average Humidity 87    
Maximum Humidity 100    
Minimum Humidity 69    
Precipitation  
Precipitation 0.00 in - - ()
Sea Level Pressure  
Sea Level Pressure 30.24 in    
Wind  
Wind Speed 9 mph (SE)    
Max Wind Speed 21 mph    
Max Gust Speed 24 mph    
Visibility 9 miles    
Events      
Averages and records for this station are not official NWS values.
T = Trace of Precipitation, MM = Missing Value Source: NWS Daily Summary

Daily Weather History Graph

Daily Weather History Graph

Search for Another Location

Airport or City:

Trip Planner

Search our weather history database for the weather conditions in past years. The results will help you decide how hot, cold, wet, or windy it might be!

Date:

Astronomy

Mar. 07, 2013 Rise Set
Actual Time 6:46 AM CST 6:16 PM CST
Civil Twilight 6:17 AM CST 6:45 PM CST
Nautical Twilight 5:44 AM CST 7:19 PM CST
Astronomical Twilight 5:10 AM CST 7:52 PM CST
Moon 3:54 AM CST (3/7) 1:59 PM CST (3/7)
Length of Visible Light 12h 28m
Length of Day
11h 30m
Waning Crescent, 20% of the Moon is Illuminated
Mar 7
Waning Crescent
Mar 11
New
Mar 19
First Quarter
Mar 27
Full
Apr 2
Last Quarter

Hourly Weather History & Observations

Time (CST) Temp. Windchill Dew Point Humidity Pressure Visibility Wind Dir Wind Speed Gust Speed Precip Events Conditions
12:12 AM 19.4 °F 12.8 °F 17.6 °F 93% 30.31 in 10.0 mi SE 4.6 mph - N/A   Overcast
12:32 AM 19.4 °F 11.5 °F 17.6 °F 93% 30.29 in 10.0 mi SE 5.8 mph - N/A   Overcast
12:53 AM 19.4 °F 9.5 °F 17.6 °F 93% 30.28 in 10.0 mi SE 8.1 mph - N/A   Overcast
1:12 AM 19.4 °F 7.9 °F 15.8 °F 86% 30.28 in 10.0 mi ESE 10.4 mph - N/A   Overcast
1:32 AM 19.4 °F 7.9 °F 17.6 °F 93% 30.28 in 10.0 mi SE 10.4 mph - N/A   Overcast
1:53 AM 17.6 °F 6.4 °F 15.8 °F 93% 30.29 in 10.0 mi ESE 9.2 mph - N/A   Overcast
2:12 AM 17.6 °F 7.3 °F 15.8 °F 93% 30.30 in 10.0 mi SE 8.1 mph - N/A   Overcast
2:32 AM 17.6 °F 7.3 °F 15.8 °F 93% 30.30 in 10.0 mi SE 8.1 mph - N/A   Overcast
2:53 AM 17.6 °F 5.7 °F 15.8 °F 93% 30.28 in 10.0 mi SE 10.4 mph - N/A   Overcast
3:13 AM 17.6 °F 9.3 °F 15.8 °F 93% 30.28 in 10.0 mi SE 5.8 mph - N/A   Overcast
3:32 AM 17.6 °F 7.3 °F 15.8 °F 93% 30.28 in 10.0 mi SE 8.1 mph - N/A   Overcast
3:53 AM 17.6 °F 9.3 °F 15.8 °F 93% 30.28 in 10.0 mi SE 5.8 mph - N/A   Overcast
4:13 AM 17.6 °F 10.7 °F 15.8 °F 93% 30.28 in 10.0 mi SE 4.6 mph - N/A   Overcast
4:32 AM 17.6 °F - 15.8 °F 93% 30.29 in 10.0 mi Calm Calm - N/A   Overcast
4:53 AM 17.6 °F 9.3 °F 15.8 °F 93% 30.28 in 10.0 mi SE 5.8 mph - N/A   Overcast
5:13 AM 17.6 °F 10.7 °F 15.8 °F 93% 30.28 in 10.0 mi SE 4.6 mph - N/A   Overcast
5:32 AM 15.8 °F - 15.8 °F 100% 30.29 in 10.0 mi Calm Calm - N/A   Mostly Cloudy
5:53 AM 15.8 °F 8.6 °F 12.2 °F 86% 30.29 in 10.0 mi SE 4.6 mph - N/A   Scattered Clouds
6:13 AM 14.0 °F 6.5 °F 12.2 °F 93% 30.29 in 10.0 mi SE 4.6 mph - N/A   Clear
6:32 AM 12.2 °F 2.9 °F 10.4 °F 92% 30.28 in 10.0 mi ESE 5.8 mph - N/A   Clear
6:53 AM 12.2 °F 1.7 °F 10.4 °F 92% 30.27 in 10.0 mi ESE 6.9 mph - N/A   Clear
7:13 AM 12.2 °F 2.9 °F 12.2 °F 100% 30.28 in 10.0 mi SE 5.8 mph - N/A   Clear
7:32 AM 14.0 °F 3.9 °F 12.2 °F 93% 30.27 in 7.0 mi SE 6.9 mph - N/A   Clear
7:53 AM 15.8 °F 4.2 °F 15.8 °F 100% 30.27 in 10.0 mi SSE 9.2 mph - N/A   Clear
8:13 AM 15.8 °F 3.4 °F 15.8 °F 100% 30.26 in 10.0 mi SE 10.4 mph - N/A   Clear
8:32 AM 17.6 °F 5.7 °F 15.8 °F 93% 30.26 in 10.0 mi SSE 10.4 mph - N/A   Clear
9:13 AM 19.4 °F 6.0 °F 15.8 °F 86% 30.26 in 10.0 mi SE 13.8 mph 18.4 mph N/A   Clear
9:32 AM 19.4 °F 5.5 °F 15.8 °F 86% 30.25 in 10.0 mi SE 15.0 mph - N/A   Clear
9:53 AM 21.2 °F 9.5 °F 17.6 °F 86% 30.25 in 10.0 mi SE 11.5 mph - N/A   Clear
10:13 AM 21.2 °F 8.9 °F 17.6 °F 86% 30.25 in 10.0 mi SE 12.7 mph - N/A   Clear
10:32 AM 23.0 °F 11.1 °F 17.6 °F 80% 30.25 in 10.0 mi SSE 12.7 mph - N/A   Clear
10:52 AM 24.8 °F 14.0 °F 19.4 °F 80% 30.25 in 10.0 mi SSE 11.5 mph - N/A   Clear
11:13 AM 24.8 °F 14.6 °F 19.4 °F 80% 30.25 in 10.0 mi SE 10.4 mph - N/A   Clear
11:32 AM 24.8 °F 13.4 °F 19.4 °F 80% 30.25 in 10.0 mi SE 12.7 mph 17.3 mph N/A   Clear
11:52 AM 26.6 °F 16.2 °F 19.4 °F 74% 30.24 in 10.0 mi SE 11.5 mph - N/A   Clear
12:13 PM 28.4 °F 18.0 °F 19.4 °F 69% 30.24 in 10.0 mi SE 12.7 mph - N/A   Clear
12:32 PM 28.4 °F 17.0 °F 21.2 °F 74% 30.24 in 10.0 mi ESE 15.0 mph - N/A   Clear
12:52 PM 28.4 °F 17.0 °F 19.4 °F 69% 30.23 in 10.0 mi SE 15.0 mph - N/A   Clear
1:13 PM 28.4 °F 17.0 °F 21.2 °F 74% 30.21 in 10.0 mi ESE 15.0 mph - N/A   Clear
1:32 PM 28.4 °F 18.0 °F 21.2 °F 74% 30.21 in 10.0 mi SE 12.7 mph - N/A   Clear
1:53 PM 28.4 °F 15.4 °F 21.2 °F 74% 30.19 in 10.0 mi ESE 19.6 mph 23.0 mph N/A   Clear
2:13 PM 30.2 °F 19.3 °F 21.2 °F 69% 30.19 in 10.0 mi ESE 15.0 mph - N/A   Clear
2:32 PM 30.2 °F 18.1 °F 21.2 °F 69% 30.18 in 10.0 mi ESE 18.4 mph - N/A   Clear
2:52 PM 28.4 °F 15.1 °F 21.2 °F 74% 30.17 in 10.0 mi ESE 20.7 mph - N/A   Clear
3:13 PM 28.4 °F 16.6 °F 21.2 °F 74% 30.18 in 10.0 mi ESE 16.1 mph - N/A   Clear
3:32 PM 28.4 °F 16.6 °F 21.2 °F 74% 30.18 in 10.0 mi ESE 16.1 mph - N/A   Clear
3:52 PM 28.4 °F 15.8 °F 21.2 °F 74% 30.18 in 10.0 mi ESE 18.4 mph 23.0 mph N/A   Clear
4:13 PM 28.4 °F 17.0 °F 21.2 °F 74% 30.18 in 10.0 mi ESE 15.0 mph - N/A   Clear
4:32 PM 28.4 °F 17.5 °F 21.2 °F 74% 30.18 in 10.0 mi ESE 13.8 mph - N/A   Clear
4:52 PM 26.6 °F 13.8 °F 21.2 °F 80% 30.17 in 10.0 mi ESE 17.3 mph - N/A   Clear
5:13 PM 26.6 °F 15.2 °F 21.2 °F 80% 30.17 in 10.0 mi ESE 13.8 mph 21.9 mph N/A   Clear
5:32 PM 26.6 °F 14.7 °F 21.2 °F 80% 30.16 in 10.0 mi ESE 15.0 mph - N/A   Clear
5:52 PM 24.8 °F 12.9 °F 21.2 °F 86% 30.17 in 10.0 mi ESE 13.8 mph 24.2 mph N/A   Clear
7:32 PM 23.0 °F 10.6 °F 19.4 °F 86% 30.18 in 10.0 mi SE 13.8 mph 18.4 mph N/A   Clear
7:53 PM 23.0 °F 11.7 °F 19.4 °F 86% 30.19 in 10.0 mi SE 11.5 mph 16.1 mph N/A   Clear
8:12 PM 21.2 °F 10.9 °F 19.4 °F 93% 30.21 in 10.0 mi SSE 9.2 mph - N/A   Clear
8:32 PM 21.2 °F 10.9 °F 19.4 °F 93% 30.21 in 10.0 mi SE 9.2 mph - N/A   Clear
8:53 PM 21.2 °F 10.1 °F 19.4 °F 93% 30.20 in 10.0 mi SE 10.4 mph - N/A   Clear
9:12 PM 21.2 °F 10.1 °F 19.4 °F 93% 30.20 in 7.0 mi SE 10.4 mph - N/A   Clear
9:32 PM 21.2 °F 10.1 °F 19.4 °F 93% 30.20 in 7.0 mi SE 10.4 mph - N/A   Clear
9:53 PM 21.2 °F 9.5 °F 19.4 °F 93% 30.20 in 7.0 mi SE 11.5 mph - N/A   Clear
10:12 PM 21.2 °F 10.1 °F 19.4 °F 93% 30.21 in 5.0 mi SE 10.4 mph - N/A   Clear
10:33 PM 21.2 °F 10.1 °F 19.4 °F 93% 30.21 in 5.0 mi SSE 10.4 mph - N/A   Clear
10:53 PM 21.2 °F 10.1 °F 17.6 °F 86% 30.21 in 5.0 mi SSE 10.4 mph - N/A   Clear
11:12 PM 19.4 °F 9.5 °F 19.4 °F 100% 30.21 in 4.0 mi SSE 8.1 mph - N/A   Clear
11:32 PM 19.4 °F 8.6 °F 19.4 °F 100% 30.21 in 4.0 mi SSE 9.2 mph - N/A   Clear